Charlottetown, Prince Edward Island

1:35 PM AST on December 18, 2017 (GMT -0400)
Charlottetown

Weather History for CYYG - November, 2010

Change the Weather History Date:

Tuesday, November 23, 2010

  Actual Average Record
Temperature  
Mean Temperature 28 °F -  
Max Temperature 34 °F 34 °F 61 °F (2015)
Min Temperature 21 °F 20 °F 19 °F (2008)
Degree Days  
Heating Degree Days 38    
Moisture  
Dew Point 27 °F    
Average Humidity 87    
Maximum Humidity 93    
Minimum Humidity 73    
Precipitation  
Precipitation 0.28 in 0.17 in - ()
Sea Level Pressure  
Sea Level Pressure 30.04 in    
Wind  
Wind Speed 2 mph ()    
Max Wind Speed 6 mph    
Max Gust Speed -    
Visibility 14.1 miles    
Events Rain , Snow    
Averages and records for this station are not official NWS values.
T = Trace of Precipitation, MM = Missing Value Source: Averaged Metar Reports

Daily Weather History Graph

Daily Weather History Graph

Search for Another Location

Airport or City:

Trip Planner

Search our weather history database for the weather conditions in past years. The results will help you decide how hot, cold, wet, or windy it might be!

Date:

Astronomy

Nov. 23, 2010 Rise Set
Actual Time 7:24 AM AST 4:32 PM AST
Civil Twilight 6:51 AM AST 5:06 PM AST
Nautical Twilight 6:14 AM AST 5:43 PM AST
Astronomical Twilight 5:38 AM AST 6:18 PM AST
Moon 6:03 PM AST (11/23) 9:24 AM AST (11/23)
Length of Visible Light 10h 14m
Length of Day
9h 07m
Waning Gibbous, 96% of the Moon is Illuminated
Nov 23
Waning Gibbous
Nov 28
Last Quarter
Dec 5
New
Dec 13
First Quarter
Dec 21
Full

Hourly Weather History & Observations

Time (AST) Temp. Windchill Dew Point Humidity Pressure Visibility Wind Dir Wind Speed Gust Speed Precip Events Conditions
12:00 AM 26.6 °F 22.6 °F 24.8 °F 93% 30.25 in 5.0 mi ESE 3.5 mph - N/A Snow Light Snow
1:00 AM 26.6 °F - 24.8 °F 93% 30.22 in 10.0 mi Calm Calm - N/A Snow Light Snow
2:00 AM 27 °F - 26 °F 92% 30.20 in 15 mi SE 2.3 mph - - Snow Light Snow
2:00 AM 26.6 °F - 24.8 °F 93% 30.20 in 10.0 mi SE 2.3 mph - N/A Snow Light Snow
3:00 AM 28.4 °F - 26.6 °F 93% 30.19 in 15.0 mi ESE 2.3 mph - N/A   Overcast
4:00 AM 28.4 °F 23.3 °F 26.6 °F 93% 30.19 in 15.0 mi NE 4.6 mph - N/A   Overcast
5:00 AM 28.4 °F - 26.6 °F 93% 30.18 in 15.0 mi Calm Calm - N/A   Overcast
6:00 AM 26.6 °F 22.6 °F 24.8 °F 93% 30.15 in 15.0 mi NNE 3.5 mph - N/A   Overcast
7:00 AM 24.8 °F - 23.0 °F 93% 30.14 in 15.0 mi Calm Calm - N/A   Mostly Cloudy
8:00 AM 24 °F - 23 °F 93% 30.14 in 15 mi NE 2.3 mph - -   Partly Cloudy
8:00 AM 24.8 °F - 23.0 °F 93% 30.14 in 15.0 mi NE 2.3 mph - N/A   Mostly Cloudy
8:13 AM 23.0 °F - - N/A% - 15.0 mi Calm Calm - N/A   Mostly Cloudy
9:00 AM 28.4 °F - 26.6 °F 93% 30.13 in 15.0 mi Calm Calm - N/A   Mostly Cloudy
10:00 AM 32.0 °F - 28.4 °F 87% 30.11 in 15.0 mi Calm Calm - N/A   Mostly Cloudy
11:00 AM 33.8 °F - 28.4 °F 81% 30.09 in 15.0 mi Calm Calm - N/A   Mostly Cloudy
12:00 PM 33.8 °F 30.8 °F 28.4 °F 81% 30.06 in 15.0 mi ESE 3.5 mph - N/A   Mostly Cloudy
1:00 PM 33.8 °F - 28.4 °F 81% 30.01 in 15.0 mi Calm Calm - N/A   Mostly Cloudy
2:00 PM 35 °F - 29 °F 73% 30.00 in 15 mi Calm Calm - -   Overcast
2:00 PM 35.6 °F - 30.2 °F 81% 30.00 in 15.0 mi Calm Calm - N/A   Overcast
3:00 PM 35.6 °F - 28.4 °F 75% 29.97 in 15.0 mi Calm Calm - N/A   Mostly Cloudy
4:00 PM 33.8 °F - 28.4 °F 81% 29.94 in 15.0 mi East 2.3 mph - N/A   Mostly Cloudy
5:00 PM 32.0 °F 28.7 °F 28.4 °F 87% 29.91 in 15.0 mi East 3.5 mph - N/A   Overcast
6:00 PM 32.0 °F - 28.4 °F 87% 29.88 in 15.0 mi Calm Calm - N/A   Overcast
7:00 PM 32.0 °F 27.5 °F 28.4 °F 87% 29.85 in 15.0 mi East 4.6 mph - N/A   Mostly Cloudy
8:00 PM 32 °F - 28 °F 79% 29.81 in 15 mi SE 4.6 mph - -   Overcast
8:00 PM 32.0 °F 27.5 °F 28.4 °F 87% 29.81 in 15.0 mi SE 4.6 mph - N/A   Overcast
8:53 PM 32.0 °F 26.4 °F - N/A% - 15.0 mi SE 5.8 mph - N/A Rain Light Rain
9:00 PM 32.0 °F 26.4 °F 28.4 °F 87% 29.79 in 15.0 mi SE 5.8 mph - N/A Rain Light Rain
10:00 PM 32.0 °F 26.4 °F 28.4 °F 87% 29.75 in 10.0 mi ESE 5.8 mph - N/A Rain Light Rain